[[{"header":{"parameterUnit":"m.s-1","parameterCategory":1,"la1":30.2991,"la2":30.254,"lo1":-89.0895,"lo2":-89.0444,"dy":0.0017,"dx":0.0017,"nx":28,"ny":28,"refTime":"2025-11-18T09:00:00:Z","depth":0,"parameterNumber":2,"parameterNumberName":"U-component_of_WINDS"},"data":[0,0,0,0,0,0,0,0,0,0,0,0,0,0,0,0,0,0,0,0,0,0,0,0,0,0,0,0,0,0,0,0,0,0,0,0,0,0,0,0,0,0,0,0,0,0,0,0,0,0,0,0,0,0,0,0,0,0,-1.425,-1.425,0,-1.4294,-1.4295,-1.4295,-1.4289,-1.4288,-1.4288,-1.4287,-1.4332,-1.4333,-1.4335,0,0,0,0,0,0,0,0,0,0,0,0,0,-1.4158,-1.4159,-1.425,-1.425,-1.4251,-1.4294,-1.4295,-1.4295,-1.4289,-1.4288,-1.4287,-1.4287,-1.4331,-1.4333,-1.4335,0,0,0,0,0,0,0,0,0,0,0,0,0,-1.4199,-1.416,-1.425,-1.4253,-1.4254,-1.4294,-1.4295,-1.4295,-1.4289,-1.4288,-1.4287,-1.4286,-1.433,-1.4333,-1.4336,-1.4375,0,0,-1.4344,-1.4346,0,0,0,0,0,0,0,0,-1.4197,-1.4203,-1.4252,-1.4253,-1.4254,-1.4285,-1.4279,-1.4322,-1.429,-1.4276,-1.4287,-1.4286,-1.4317,-1.4321,-1.4332,-1.4377,-1.4379,-1.4345,-1.4346,-1.4348,-1.4348,0,0,0,0,0,0,0,-1.4194,-1.4201,-1.4267,-1.4253,-1.4254,-1.4252,-1.4256,-1.4287,-1.4302,-1.4277,-1.4277,-1.4282,-1.4317,-1.4329,-1.4333,-1.438,-1.4345,-1.4347,-1.4349,-1.435,-1.4457,-1.4459,0,0,0,0,0,0,-1.419,-1.4198,-1.4266,-1.4269,-1.4222,-1.4254,-1.4259,-1.4276,-1.4302,-1.4304,-1.4283,-1.4281,-1.4325,-1.4329,-1.4334,-1.438,-1.4348,-1.435,-1.4352,-1.4456,-1.4458,-1.4459,0,0,0,0,0,0,-1.4188,-1.4197,-1.4264,-1.4233,-1.4242,-1.4257,-1.4276,-1.4277,-1.4289,-1.4306,-1.4309,-1.4292,-1.4324,-1.433,-1.4364,-1.4382,-1.4351,-1.4354,-1.4455,-1.4457,-1.4458,-1.4473,0,0,0,0,0,0,-1.4186,-1.4196,-1.4212,-1.4234,-1.4243,-1.4294,-1.4277,-1.4279,-1.4294,-1.4293,-1.4315,-1.4318,-1.4323,-1.436,-1.4367,-1.4385,-1.4356,-1.4453,-1.4456,-1.4458,-1.4472,-1.4476,-1.4479,0,0,0,0,0,-1.4183,-1.4215,-1.4213,-1.4221,-1.4264,-1.4295,-1.4301,-1.4307,-1.4295,-1.4311,-1.4321,-1.4317,-1.4379,-1.4364,-1.4372,-1.439,-1.4452,-1.4455,-1.4458,-1.447,-1.4475,-1.4479,0,0,0,0,0,0,-1.4195,-1.4218,-1.4216,-1.4256,-1.4274,-1.4294,-1.4314,-1.4312,-1.4333,-1.4331,-1.4337,-1.4342,-1.4377,-1.4387,-1.437,-1.4429,-1.4414,-1.4418,-1.442,-1.4425,-1.4429,-1.4425,-1.4359,0,0,0,0,0,-1.4202,-1.4226,-1.4245,-1.4278,-1.4287,-1.4299,-1.4313,-1.4316,-1.4335,-1.4342,-1.4356,-1.4373,-1.4396,-1.4412,-1.4434,-1.4473,-1.4477,-1.449,-1.4493,-1.4496,-1.45,-1.4519,-1.4524,-1.4468,-1.4468,-1.4468,0,0,-1.4217,-1.4233,-1.4248,-1.4281,-1.4295,-1.4319,-1.4306,-1.4333,-1.435,-1.4346,-1.4379,-1.4389,-1.4409,-1.4446,-1.4462,-1.4456,-1.4516,-1.45,-1.4502,-1.4504,-1.4522,-1.4527,-1.4532,-1.4469,-1.4469,-1.4469,0,0,-1.4257,-1.4272,-1.4301,-1.4315,-1.4336,-1.4343,-1.435,-1.4371,-1.4377,-1.441,-1.4407,-1.4428,-1.4468,-1.4482,-1.4494,-1.4537,-1.4533,-1.4544,-1.4564,-1.4582,-1.4587,-1.459,-1.4604,-1.4609,-1.4548,-1.4548,-1.4548,0,-1.4273,-1.431,-1.4316,-1.4342,-1.4356,-1.4353,-1.4381,-1.4395,-1.4422,-1.4431,-1.4423,-1.4472,-1.4486,-1.4524,-1.4534,-1.4545,-1.4552,-1.4542,-1.4586,-1.459,-1.4593,-1.4606,-1.4611,-1.4549,-1.4549,-1.4549,-1.4549,0,-1.4328,-1.4353,-1.4374,-1.44,-1.4416,-1.4443,-1.4452,-1.4467,-1.4468,-1.4476,-1.4508,-1.4524,-1.4549,-1.4558,-1.456,-1.4596,-1.4591,-1.4584,-1.4569,-1.46,-1.4612,-1.4617,-1.455,-1.455,-1.455,-1.4549,0,0,-1.4377,-1.4405,-1.4412,-1.4423,-1.4445,-1.4464,-1.4491,-1.4514,-1.4527,-1.4545,-1.4566,-1.46,-1.4593,-1.4607,-1.461,-1.4626,-1.4656,-1.4617,-1.4617,-1.4622,-1.4695,-1.4699,-1.4705,-1.4654,-1.4655,-1.4656,-1.4693,0,-1.4418,-1.4465,-1.4469,-1.4511,-1.4533,-1.453,-1.4552,-1.4568,-1.4575,-1.4595,-1.4603,-1.4625,-1.4616,-1.4624,-1.464,-1.4649,-1.4671,-1.4647,-1.4673,-1.4673,-1.4666,-1.4712,-1.4716,-1.475,-1.4698,-1.4699,-1.4699,0,-1.4473,-1.4492,-1.4535,-1.4552,-1.4562,-1.4582,-1.4603,-1.4622,-1.4639,-1.4643,-1.4657,-1.4657,-1.4683,-1.4667,-1.4702,-1.4685,-1.4696,-1.4702,-1.4703,-1.4705,-1.4687,-1.4713,-1.4762,-1.4766,-1.4707,-1.4707,-1.4706,0,-1.4502,-1.4539,-1.4569,-1.4578,-1.46,-1.4613,-1.4623,-1.4639,-1.4652,-1.467,-1.4678,-1.4699,-1.4711,-1.4726,-1.4731,-1.472,-1.4765,-1.475,-1.4768,-1.4768,-1.4777,-1.4776,-1.4826,-1.4786,-1.4786,-1.4786,-1.4786,0,-1.4546,-1.4573,-1.4582,-1.46,-1.4629,-1.4633,-1.4661,-1.467,-1.4684,-1.4703,-1.4702,-1.4719,-1.4726,-1.4744,-1.4748,-1.4775,-1.4781,-1.4784,-1.4784,-1.4783,-1.4782,-1.4789,-1.4787,-1.4787,-1.4787,-1.4787,-1.4786,0,-1.4584,-1.4592,-1.4624,-1.4641,-1.4646,-1.4666,-1.468,-1.4697,-1.4703,-1.4727,-1.4733,-1.4744,-1.4765,-1.4772,-1.4798,-1.4801,-1.4831,-1.4831,-1.4825,-1.4825,-1.4842,-1.4839,-1.4897,-1.4904,-1.486,-1.4861,-1.4861,0,-1.4612,-1.4631,-1.465,-1.4662,-1.4672,-1.4693,-1.4706,-1.471,-1.4724,-1.4743,-1.4758,-1.4779,-1.4796,-1.483,-1.484,-1.4859,-1.4858,-1.4877,-1.4861,-1.4858,-1.4856,-1.4854,-1.4855,-1.4879,-1.488,-1.488,-1.488,0,-1.4659,-1.4661,-1.468,-1.4699,-1.4715,-1.4731,-1.4746,-1.4756,-1.4763,-1.4778,-1.4799,-1.4813,-1.4839,-1.4859,-1.4878,-1.4887,-1.4884,-1.4885,-1.489,-1.4889,-1.4884,-1.4885,-1.4832,-1.4884,-1.4884,-1.4883,-1.4883,-1.4883,-1.4691,-1.4708,-1.4723,-1.4743,-1.4755,-1.4768,-1.4784,-1.4793,-1.4811,-1.4832,-1.4834,-1.4857,-1.4871,-1.4896,-1.4906,-1.4923,-1.4918,-1.4925,-1.4927,-1.4928,-1.4929,-1.4882,-1.4927,-1.4927,-1.4927,-1.4927,-1.4927,0,-1.4737,-1.4746,-1.4764,-1.4785,-1.4801,-1.4797,-1.4813,-1.4826,-1.4846,-1.486,-1.4876,-1.49,-1.4919,-1.4929,-1.4948,-1.496,-1.4959,-1.4965,-1.4963,-1.4965,-1.4933,-1.4927,-1.4965,-1.4965,-1.4965,-1.4965,-1.4965,-1.4965,-1.4762,-1.4789,-1.4793,-1.4825,-1.4834,-1.4856,-1.4865,-1.4877,-1.4888,-1.4914,-1.493,-1.4937,-1.4948,-1.4968,-1.4985,-1.4987,-1.4993,-1.4999,-1.5001,-1.4971,-1.4967,-1.4964,-1.4957,-1.5001,-1.5001,-1.5031,-1.5031,-1.5031]},{"header":{"parameterUnit":"m.s-1","parameterCategory":1,"la1":30.2991,"la2":30.254,"lo1":-89.0895,"lo2":-89.0444,"dy":0.0017,"dx":0.0017,"nx":28,"ny":28,"refTime":"2025-11-18T09:00:00:Z","depth":0,"parameterNumber":3,"parameterNumberName":"V-component_of_WINDS"},"data":[0,0,0,0,0,0,0,0,0,0,0,0,0,0,0,0,0,0,0,0,0,0,0,0,0,0,0,0,0,0,0,0,0,0,0,0,0,0,0,0,0,0,0,0,0,0,0,0,0,0,0,0,0,0,0,0,0,0,0.3509,0.351,0,0.3563,0.3564,0.3565,0.3556,0.3555,0.3554,0.3554,0.3616,0.3618,0.362,0,0,0,0,0,0,0,0,0,0,0,0,0,0.3407,0.3408,0.3509,0.351,0.3511,0.3563,0.3564,0.3565,0.3557,0.3555,0.3554,0.3553,0.3615,0.3618,0.3621,0,0,0,0,0,0,0,0,0,0,0,0,0,0.3455,0.3409,0.3509,0.3513,0.3513,0.3563,0.3564,0.3565,0.3557,0.3555,0.3554,0.3553,0.3614,0.3617,0.3621,0.3673,0,0,0.3633,0.3634,0,0,0,0,0,0,0,0,0.3452,0.3459,0.3511,0.3512,0.3513,0.3552,0.3551,0.3601,0.3557,0.3541,0.3554,0.3552,0.3596,0.3601,0.3614,0.3676,0.3678,0.3633,0.3635,0.3637,0.3638,0,0,0,0,0,0,0,0.3449,0.3457,0.3531,0.3512,0.3514,0.3514,0.3519,0.356,0.3576,0.3542,0.3541,0.3548,0.3596,0.3611,0.3616,0.3679,0.3633,0.3636,0.3639,0.364,0.379,0.3791,0,0,0,0,0,0,0.3444,0.3454,0.3529,0.3532,0.3479,0.3517,0.3523,0.3541,0.3575,0.3579,0.3549,0.3547,0.3605,0.3611,0.3618,0.3683,0.3637,0.364,0.3643,0.3788,0.379,0.3792,0,0,0,0,0,0,0.3441,0.345,0.3527,0.3493,0.3503,0.352,0.354,0.3543,0.3557,0.358,0.3584,0.356,0.3604,0.3613,0.366,0.3685,0.3642,0.3646,0.3786,0.3789,0.3791,0.3812,0,0,0,0,0,0,0.3438,0.345,0.3467,0.3493,0.3505,0.3565,0.3542,0.3545,0.3563,0.3561,0.3592,0.3596,0.3604,0.3654,0.3663,0.3689,0.3649,0.3784,0.3787,0.379,0.3809,0.3815,0.382,0,0,0,0,0,0.3435,0.3472,0.3468,0.3477,0.3527,0.3566,0.3573,0.358,0.3565,0.3585,0.36,0.3595,0.3681,0.3659,0.3669,0.3697,0.3782,0.3786,0.379,0.3807,0.3814,0.382,0,0,0,0,0,0,0.3449,0.3475,0.3471,0.3517,0.354,0.3565,0.3589,0.3586,0.3615,0.3612,0.3621,0.3629,0.3677,0.3691,0.3667,0.3751,0.373,0.3736,0.3739,0.3746,0.3751,0.3747,0.3652,0,0,0,0,0,0.3458,0.3485,0.3507,0.3546,0.3557,0.3571,0.3589,0.3592,0.3617,0.3627,0.3645,0.3671,0.3704,0.3726,0.3757,0.3811,0.382,0.3836,0.3841,0.3846,0.3851,0.3885,0.3893,0.3805,0.3805,0.3804,0,0,0.3476,0.3493,0.351,0.3549,0.3567,0.3599,0.3579,0.3613,0.3637,0.3632,0.3678,0.3693,0.3723,0.3774,0.3798,0.3788,0.3878,0.3851,0.3854,0.3857,0.3889,0.3898,0.3905,0.3807,0.3807,0.3806,0,0,0.3524,0.3539,0.3574,0.3592,0.3619,0.3629,0.3637,0.3664,0.3673,0.3718,0.3716,0.3747,0.3803,0.3825,0.3844,0.3904,0.3902,0.3915,0.3943,0.3976,0.3983,0.3989,0.4013,0.4021,0.392,0.392,0.392,0,0.3544,0.3588,0.3593,0.3627,0.3646,0.3642,0.3679,0.3698,0.3734,0.3749,0.3737,0.3809,0.3828,0.3887,0.3902,0.3916,0.3929,0.3911,0.3981,0.3987,0.3993,0.4017,0.4025,0.3922,0.3921,0.3921,0.3921,0,0.3613,0.3644,0.367,0.3704,0.3725,0.3761,0.3774,0.3796,0.3798,0.381,0.3859,0.3882,0.392,0.3934,0.3937,0.3994,0.3988,0.3978,0.3958,0.4003,0.4025,0.4034,0.3924,0.3923,0.3923,0.3922,0,0,0.3671,0.3708,0.3718,0.3734,0.3765,0.3791,0.3828,0.3863,0.3883,0.391,0.3944,0.3992,0.3985,0.4006,0.4012,0.404,0.409,0.4028,0.4029,0.404,0.4159,0.4166,0.4176,0.4088,0.409,0.4092,0.4157,0,0.3724,0.3787,0.3794,0.3851,0.3883,0.3881,0.3914,0.3938,0.3951,0.3982,0.3997,0.4033,0.4018,0.4032,0.4059,0.4078,0.4114,0.4073,0.4123,0.4125,0.4117,0.4187,0.4195,0.4256,0.4165,0.4167,0.4168,0,0.3794,0.3821,0.3882,0.391,0.3924,0.3953,0.3988,0.4016,0.4045,0.4053,0.4078,0.4081,0.4123,0.4101,0.4161,0.4133,0.4155,0.4167,0.417,0.4176,0.415,0.4198,0.4275,0.4284,0.4181,0.418,0.4179,0,0.3833,0.3885,0.3929,0.3943,0.3977,0.3998,0.4014,0.4041,0.4063,0.4094,0.411,0.4146,0.4166,0.4196,0.4211,0.4192,0.4272,0.4249,0.4282,0.4282,0.43,0.4299,0.4383,0.4311,0.4311,0.431,0.431,0,0.3892,0.393,0.3947,0.3974,0.4018,0.4027,0.4071,0.4086,0.4111,0.4143,0.4145,0.4176,0.4192,0.4226,0.4238,0.4289,0.4297,0.4308,0.4311,0.4308,0.4307,0.4323,0.432,0.4313,0.4312,0.4312,0.4311,0,0.3943,0.3956,0.4004,0.4032,0.4041,0.4072,0.4098,0.4126,0.414,0.4181,0.4192,0.4214,0.4255,0.4272,0.4323,0.4331,0.439,0.4389,0.4379,0.4381,0.4414,0.4411,0.4513,0.4528,0.4443,0.4444,0.4445,0,0.3981,0.401,0.4042,0.4063,0.4079,0.4113,0.4135,0.4146,0.417,0.4207,0.4232,0.4272,0.4306,0.4373,0.4395,0.4435,0.4437,0.4469,0.4443,0.4441,0.444,0.4439,0.4443,0.4475,0.4476,0.4476,0.4477,0,0.4047,0.4053,0.4083,0.4118,0.4144,0.4172,0.4199,0.4217,0.4233,0.426,0.4302,0.4327,0.438,0.4422,0.4464,0.4483,0.4485,0.4485,0.4495,0.4494,0.4488,0.4494,0.4395,0.4483,0.4482,0.4482,0.4481,0.4481,0.4094,0.4121,0.4148,0.4184,0.4205,0.4232,0.426,0.4277,0.4311,0.4353,0.4358,0.4404,0.4436,0.4492,0.4514,0.4552,0.4544,0.4558,0.4562,0.4566,0.4569,0.4481,0.456,0.456,0.4559,0.4559,0.4559,0,0.4163,0.418,0.4213,0.4251,0.428,0.4276,0.4307,0.4332,0.4371,0.44,0.4433,0.4483,0.4524,0.4551,0.4593,0.4619,0.4621,0.463,0.4629,0.4635,0.4573,0.4561,0.4628,0.4628,0.4628,0.4628,0.4628,0.4628,0.4201,0.4247,0.4257,0.4315,0.4333,0.4376,0.4395,0.442,0.4444,0.4498,0.4532,0.4548,0.4578,0.4623,0.4663,0.467,0.4687,0.4697,0.4704,0.4646,0.4639,0.4632,0.4621,0.47,0.47,0.4763,0.4764,0.4764]}]]